#timestamp,LO_Frequency,Hit,StdDev 
1540252815.5,286047002.8,N
1540252835.3,286047000.2,N
1540252855.2,286046999.7,N
1540252875.0,286046999.7,N
1540252875.9,286046999.7,N
1540252895.7,286046999.9,N
1540252915.6,286047001.2,N
1540252935.4,286046999.0,N
1540252955.3,286046998.8,N
1540252975.1,286046998.7,N
1540252976.0,286046998.7,N
1540252995.8,286047000.5,N
1540253015.7,286047000.5,N
1540253035.5,286047000.1,N
1540253055.3,286047001.7,N
1540253075.2,286047003.9,N
1540253095.0,286047001.9,N
1540253095.9,286047001.9,N
1540253115.8,286046999.8,N
1540253135.6,286047004.3,Y
1540253155.4,286047000.6,P
1540253175.3,286047000.9,P
1540253195.1,286047001.0,P
1540253215.9,286046999.0,Y
1540253235.7,286046998.8,P
1540253255.5,286046996.5,P
1540253275.4,286046996.9,N
1540253295.2,286046996.6,N
1540253315.0,286046994.9,Y
1540253315.9,286046994.9,P
1540253335.8,286046998.2,N
1540253355.6,286047000.8,N
1540253375.5,286046998.1,N
1540253395.3,286047000.4,N
1540253415.1,286047000.8,N
1540253435.9,286046998.6,N
1540253455.7,286046998.1,N
1540253475.5,286046998.5,N
1540253495.4,286047001.2,N
1540253515.2,286047000.6,N
1540253535.0,286046998.5,N
1540253536.0,286046998.5,N
1540253555.8,286047000.7,N
1540253575.6,286047000.9,N
1540253595.5,286046999.4,N
1540253615.3,286046998.4,N
1540253635.1,286046998.1,N
1540253655.9,286047000.6,N
1540253675.7,286046999.6,N
1540253695.5,286046999.3,N
1540253715.4,286046996.7,N
1540253735.2,286046997.3,N
1540253755.1,286046997.9,N
1540253756.0,286046997.9,N
1540253775.8,286046995.3,Y
1540253795.6,286046996.5,P
1540253815.5,286046998.0,N
1540253835.3,286046995.5,P
1540253855.2,286046995.2,Y
1540253875.9,286047000.8,P
1540253895.7,286046998.6,N
1540253915.6,286047000.8,N
1540253935.4,286047001.2,N
1540253955.2,286047000.0,N
1540253975.1,286047000.7,N
1540253976.0,286047000.7,N
1540253995.8,286046998.6,N
1540254015.7,286046998.8,N
1540254035.5,286046996.7,N
1540254055.3,286046996.8,N
1540254075.2,286046999.5,N
1540254095.0,286046996.5,N
1540254095.9,286046996.5,N
1540254115.7,286046996.5,N
1540254135.6,286046998.4,N
1540254155.4,286046999.0,N
1540254175.3,286046999.0,N
1540254195.1,286047001.2,N
1540254196.0,286047001.2,N
1540254215.8,286046998.5,N
1540254235.7,286046999.6,N
1540254255.5,286046996.8,N
1540254275.3,286046996.7,N
1540254295.2,286046999.3,N
1540254315.0,286046998.9,N
1540254315.9,286046998.9,N
1540254335.8,286047000.8,N
1540254355.6,286047000.9,N
1540254375.4,286047001.0,N
1540254395.3,286046998.7,N
1540254415.1,286046999.3,N
1540254435.8,286046996.7,N
1540254455.7,286046997.8,N
1540254475.5,286046996.8,N
1540254495.4,286046996.8,N
1540254515.2,286046996.9,N
1540254535.0,286046996.6,N
1540254535.9,286046996.6,N
1540254555.8,286046999.4,N
1540254575.6,286046996.7,N
1540254595.4,286046997.7,N
1540254615.3,286046997.5,N
1540254635.1,286046995.3,Y
1540254655.9,286046999.6,P
1540254675.7,286046996.8,P
1540254695.5,286046999.2,N
1540254715.4,286046996.7,Y
1540254735.2,286046999.3,P
1540254755.1,286047001.2,N
1540254756.0,286047001.2,N
1540254775.8,286047000.4,N
1540254795.6,286047001.1,N
1540254815.5,286047000.1,N
1540254835.3,286046999.8,N
1540254855.1,286047002.1,N
1540254875.9,286047001.5,N
1540254895.7,286047002.2,N
1540254915.6,286047004.4,Y
1540254935.4,286047001.9,P
1540254955.2,286047001.7,N
1540254975.1,286047001.3,N
1540254976.0,286047001.3,N
1540254995.8,286046999.9,N
1540255015.6,286047002.7,Y
1540255035.5,286047000.6,P
1540255055.3,286047001.1,P
1540255075.2,286046998.1,P
1540255095.9,286047000.5,N
1540255115.7,286047000.5,N
1540255135.6,286047000.1,N
1540255155.4,286047002.2,N
1540255175.2,286047002.6,N
1540255195.1,286047004.0,Y
1540255196.0,286047004.0,P
1540255215.8,286047002.6,N
1540255235.7,286047002.2,N
1540255255.5,286047000.2,N
1540255275.3,286047002.2,N
1540255295.2,286047002.6,N
1540255315.0,286047002.1,N
1540255315.9,286047002.1,N
1540255335.8,286047002.2,N
1540255355.6,286047001.8,N
1540255375.4,286047000.9,N
1540255395.3,286047000.0,N
1540255415.1,286047000.7,N
1540255435.8,286047001.2,N
1540255455.7,286046998.6,N
1540255475.5,286046999.2,N
1540255495.4,286046996.9,N
1540255515.2,286046999.4,N
1540255535.0,286046997.8,N
1540255535.9,286046997.8,N
1540255555.8,286046995.4,N
1540255575.6,286046996.3,N
1540255595.5,286046996.1,N
1540255615.3,286046996.0,N
1540255635.1,286046997.9,N
1540255655.9,286046995.4,N
1540255675.7,286046996.3,N
1540255695.5,286046995.7,N
1540255715.4,286046996.0,N
1540255735.2,286046993.7,N
1540255755.1,286046993.3,N
1540255756.0,286046993.3,N
1540255775.8,286046994.3,N
1540255795.6,286046991.7,N
1540255815.5,286046994.6,N
1540255835.3,286046993.7,N
1540255855.1,286046994.0,N
1540255875.9,286046994.2,N
1540255895.7,286046996.4,N
1540255915.6,286046993.9,N
1540255935.4,286046993.9,N
1540255955.2,286046993.9,N
1540255975.1,286046993.7,N
1540255976.0,286046993.7,N
1540255995.8,286046996.3,N
1540256015.6,286046996.4,N
1540256035.5,286046995.8,N
1540256055.3,286046996.3,N
1540256075.2,286046993.8,Y
1540256095.9,286047000.7,P
1540256115.7,286047000.4,N
1540256135.6,286046999.7,N
1540256155.4,286047000.2,N
1540256175.2,286046999.8,N
1540256195.1,286047000.1,N
1540256196.0,286047000.1,N
1540256215.8,286047001.0,N
1540256235.7,286047000.5,N
1540256255.5,286047000.9,N
1540256275.3,286047002.4,N
1540256295.2,286047002.5,N
1540256315.0,286047002.5,N
1540256315.9,286047002.5,N
1540256335.7,286047002.6,N
1540256355.6,286047002.8,N
1540256375.4,286047000.1,N
1540256395.3,286047001.8,N
